TimeIST,TemperatureF,Dew PointF,Humidity,Sea Level PressureIn,VisibilityMPH,Wind Direction,Wind SpeedMPH,Gust SpeedMPH,PrecipitationIn,Events,Conditions,WindDirDegrees,DateUTC
12:00 AM,57.2,37.4,48,30.06,1.2,Calm,Calm,-,N/A,,Smoke,0,2013-01-28 18:30:00
1:00 AM,55.4,37.4,51,30.06,1.2,Calm,Calm,-,N/A,,Smoke,0,2013-01-28 19:30:00
2:00 AM,53.6,39.2,58,30.06,1.2,Calm,Calm,-,N/A,,Smoke,0,2013-01-28 20:30:00
2:30 AM,55,42,50,30.06,1,Calm,Calm,,,,Smoke,,2013-01-28 21:00:00
3:00 AM,53.6,41.0,62,30.06,1.2,Calm,Calm,-,N/A,,Smoke,0,2013-01-28 21:30:00
4:00 AM,51.8,41.0,67,30.04,1.2,Calm,Calm,-,N/A,,Smoke,0,2013-01-28 22:30:00
5:00 AM,51.8,41.0,67,30.04,1.2,Calm,Calm,-,N/A,,Smoke,0,2013-01-28 23:30:00
5:30 AM,52,42,58,30.06,1,Calm,Calm,,,,Smoke,,2013-01-29 00:00:00
6:00 AM,50.0,41.0,71,30.04,1.2,Calm,Calm,-,N/A,,Smoke,0,2013-01-29 00:30:00
7:00 AM,48.2,41.0,76,30.06,1.1,Calm,Calm,-,N/A,,Smoke,0,2013-01-29 01:30:00
8:30 AM,55,45,60,30.06,1,Calm,Calm,,,,Smoke,,2013-01-29 03:00:00
10:00 AM,68.0,41.0,37,30.09,1.2,Variable,1.2,-,N/A,,Smoke,0,2013-01-29 04:30:00
11:30 AM,73,35,15,30.02,1,SW,2.3,,,,Haze,230,2013-01-29 06:00:00
12:00 PM,73.4,37.4,27,30.06,2.5,West,8.1,-,N/A,,Haze,260,2013-01-29 06:30:00
1:00 PM,77.0,33.8,21,30.04,2.5,WNW,6.9,-,N/A,,Haze,290,2013-01-29 07:30:00
2:00 PM,77.0,30.2,18,30.01,2.5,WNW,6.9,-,N/A,,Haze,290,2013-01-29 08:30:00
2:30 PM,78,35,12,29.96,2,NW,6.9,,,,Clear,320,2013-01-29 09:00:00
3:00 PM,77.0,28.4,17,30.01,3.7,Variable,5.8,-,N/A,,Unknown,0,2013-01-29 09:30:00
3:30 PM,77.0,28.4,17,30.01,3.7,Variable,6.9,-,N/A,,Unknown,0,2013-01-29 10:00:00
4:00 PM,77.0,28.4,17,30.01,3.7,Variable,6.9,-,N/A,,Unknown,0,2013-01-29 10:30:00
5:00 PM,77.0,32.0,19,30.01,3.7,Variable,4.6,-,N/A,,Unknown,0,2013-01-29 11:30:00
5:30 PM,76,37,15,29.95,2,,3.5,,,,,,2013-01-29 12:00:00
8:00 PM,68.0,39.2,35,30.04,1.6,Variable,2.3,-,N/A,,Haze,0,2013-01-29 14:30:00
8:30 PM,65,40,28,29.99,1,Calm,Calm,,,,Smoke,,2013-01-29 15:00:00
9:00 PM,66.2,37.4,35,30.04,1.2,Calm,Calm,-,N/A,,Haze,0,2013-01-29 15:30:00
10:00 PM,60.8,39.2,45,30.04,1.2,Calm,Calm,-,N/A,,Smoke,0,2013-01-29 16:30:00
11:00 PM,59.0,37.4,45,30.06,1.2,Calm,Calm,-,N/A,,Smoke,0,2013-01-29 17:30:00
11:30 PM,58,39,37,30.03,1,Calm,Calm,,,,Smoke,,2013-01-29 18:00:00